User: anonymous   Login
Location: Fiddletown
(38.4917°N, 120.6633°W)
Time: 23:45:42
(UTC-07:00)
Language:

Envisat - Orbit

View from above orbital plane
View from above orbital plane
View from above satellite
View from above satellite

Ground track
Ground track

The orbit data is extracted from the following two-line orbital elements,

1 27386U 02009A   16238.78108122 -.00000005  00000-0  12370-4 0  9999
2 27386  98.2769 289.6853 0001254  82.8306 277.3017 14.37873754758623
Epoch (UTC): 25 August 2016 18:44:45
Eccentricity: 0.0001254
inclination: 98.2769°
perigee height: 764 km
apogee height: 766 km
right ascension of ascending node: 289.6853°
argument of perigee: 82.8306°
revolutions per day: 14.37873754
mean anomaly at epoch: 277.3017°
orbit number at epoch: 75862

The dashed part of the orbit path shows where the satellite is in the earth's shadow,  

DLR